Flag for Italy Weather past 2 weeks in Firenze, Italy

Now
59 °F

Passing clouds.


Feels Like: 59 °F
Forecast: 55 / 64 °F
Wind: No wind

Location: Florence / Peretola

Current Time: Apr 26, 2015 at 10:57:39 PM

Latest Report: Apr 26, 2015 at 10:20 PM


Visibility: N/A

Pressure: 29.89 "Hg

Humidity: 94%

Dew point: 57 °F

Location of FirenzeLocation

Historic Weather in Firenze — Graph

°F

Firenze temperature yesterday

Maximum temperature yesterday: 72 °F (at 5:50 PM)
Minimum temperature yesterday: 46 °F (at 4:20 AM)
Average temperature yesterday: 60 °F

Past Weeks' High & Low Weather Summary

 TemperatureHumidityPressure
High75 °F (Apr 12, 2:20 PM)100% (Apr 12, 6:50 AM)30.42 "Hg (Apr 12, 6:50 AM)
Low41 °F (Apr 21, 6:20 AM)19% (Apr 22, 4:50 PM)29.86 "Hg (Apr 26, 7:20 PM)
Average59 °F65%30.12 "Hg
* Reported Apr 11 9:20 PM — Apr 26 9:50 PM, Firenze, Weather by CustomWeather, © 2015

Note: Actual official high and low records may vary slightly from our data, if they occured in-between our weather recording intervals... More about our weather records

Advertising

Firenze weather history for previous 24 hours

 ConditionsComfort  
Time TempWeatherWind HumidityBarometerVisibility
9:50 PM
Sun, Apr 26
59 °FPassing clouds.3 mph94%29.89 "HgN/A
9:20 PM61 °FPassing clouds.1 mph88%29.86 "HgN/A
8:50 PM61 °FPartly sunny.2 mph88%29.86 "HgN/A
8:20 PM63 °FPartly sunny.3 mph88%29.86 "HgN/A
7:50 PM63 °FPartly sunny.3 mph88%29.86 "HgN/A
7:20 PM63 °FPartly sunny.5 mph83%29.86 "HgN/A
6:50 PM63 °FPartly sunny.3 mph88%29.89 "HgN/A
6:20 PM63 °FPartly sunny.5 mph88%29.89 "HgN/A
5:50 PM63 °FBroken clouds.2 mph88%29.89 "HgN/A
5:20 PM63 °FBroken clouds.3 mph88%29.89 "HgN/A
4:50 PM61 °FThundershowers. Broken clouds.5 mph88%29.92 "Hg5 mi
4:20 PM63 °FThunderstorms. Broken clouds.9 mph88%29.92 "Hg5 mi
3:50 PM68 °FThundershowers. Broken clouds.7 mph69%29.89 "HgN/A
3:20 PM70 °FThundershowers. Scattered clouds.6 mph60%29.89 "HgN/A
2:50 PM72 °FScattered clouds.3 mph57%29.92 "HgN/A
2:20 PM70 °FScattered clouds.2 mph60%29.92 "HgN/A
1:50 PM68 °FScattered clouds.3 mph64%29.95 "HgN/A
1:20 PM66 °FPartly sunny.3 mph64%29.95 "HgN/A
12:50 PM66 °FPartly sunny.3 mph64%29.95 "HgN/A
12:20 PM66 °FBroken clouds.2 mph68%29.98 "HgN/A
11:50 AM64 °FBroken clouds.3 mph73%29.98 "HgN/A
11:20 AM64 °FBroken clouds.2 mph73%29.98 "HgN/A
10:50 AM63 °FBroken clouds.3 mph77%29.98 "HgN/A
10:20 AM63 °FScattered clouds.6 mph77%29.98 "Hg5 mi
9:50 AM61 °FScattered clouds.2 mph83%29.98 "Hg4 mi
9:20 AM59 °FScattered clouds.3 mph88%29.98 "Hg4 mi
8:50 AM59 °FScattered clouds.2 mph88%29.98 "Hg4 mi
8:20 AM57 °FFog.2 mph94%29.98 "Hg3 mi
7:50 AM57 °FFog.2 mph88%29.98 "Hg3 mi
7:20 AM55 °FFog.3 mph94%29.98 "Hg3 mi
6:50 AM55 °FFog.3 mph94%29.98 "Hg3 mi
6:20 AM57 °FFog.2 mph88%29.98 "Hg2 mi
5:50 AM57 °FFog.2 mph94%29.98 "Hg2 mi
5:20 AM57 °FFog.2 mph94%29.98 "Hg3 mi
4:50 AM57 °FPassing clouds.2 mph94%29.98 "Hg4 mi
4:20 AM57 °FPassing clouds.2 mph94%29.98 "Hg4 mi
3:50 AM57 °FPassing clouds.1 mph94%29.98 "Hg4 mi
3:20 AM57 °FPassing clouds.1 mph94%29.98 "Hg4 mi
2:50 AM57 °FPassing clouds.3 mph94%30.01 "Hg4 mi
2:20 AM57 °FPassing clouds.2 mph94%30.01 "Hg4 mi
1:50 AM57 °FPassing clouds.3 mph88%30.01 "Hg5 mi
1:20 AM59 °FPartly cloudy.3 mph88%30.01 "Hg5 mi
12:50 AM59 °FPassing clouds.1 mph88%30.01 "Hg5 mi
12:20 AM57 °FPassing clouds.1 mph88%30.01 "Hg6 mi
11:50 PM
Sat, Apr 25
59 °FPassing clouds.No wind88%30.01 "Hg5 mi
10:50 PM61 °FPassing clouds.7 mph83%30.01 "HgN/A
10:20 PM61 °FPassing clouds.7 mph83%30.01 "Hg5 mi
Weather by CustomWeather, © 2015

See weather overviewHow to use our weather pages